TimeEST,TemperatureF,Dew PointF,Humidity,Sea Level PressureIn,VisibilityMPH,Wind Direction,Wind SpeedMPH,Gust SpeedMPH,PrecipitationIn,Events,Conditions,WindDirDegrees,DateUTC
12:15 AM,48.7,45.7,89,30.04,10.0,NE,4.6,-,N/A,,Overcast,40,2012-12-09 05:15:00
12:35 AM,48.6,45.7,90,30.04,10.0,NNE,6.9,-,N/A,,Overcast,30,2012-12-09 05:35:00
12:55 AM,48.2,45.7,91,30.04,7.0,NE,5.8,-,N/A,,Overcast,40,2012-12-09 05:55:00
1:15 AM,47.8,45.5,92,30.04,7.0,NE,8.1,-,N/A,,Light Drizzle,40,2012-12-09 06:15:00
1:35 AM,47.3,45.0,92,30.04,7.0,NNE,9.2,-,N/A,,Overcast,20,2012-12-09 06:35:00
1:55 AM,46.6,44.2,92,30.04,7.0,NE,9.2,-,N/A,Rain,Light Rain,40,2012-12-09 06:55:00
2:15 AM,46.4,43.9,91,30.06,7.0,NNE,5.8,-,N/A,Rain,Rain,20,2012-12-09 07:15:00
2:35 AM,45.5,43.2,92,30.05,7.0,NE,9.2,-,N/A,Rain,Light Rain,40,2012-12-09 07:35:00
2:55 AM,45.1,43.0,92,30.05,10.0,NNE,6.9,-,N/A,,Overcast,30,2012-12-09 07:55:00
3:15 AM,45.0,42.8,92,30.06,10.0,NNE,5.8,-,N/A,Rain,Light Rain,30,2012-12-09 08:15:00
3:35 AM,44.8,42.8,93,30.05,7.0,NE,6.9,-,N/A,Rain,Rain,40,2012-12-09 08:35:00
3:55 AM,44.6,42.8,93,30.04,7.0,NE,6.9,-,N/A,Rain,Light Rain,40,2012-12-09 08:55:00
4:15 AM,44.4,42.6,93,30.04,7.0,ENE,9.2,-,N/A,Rain,Rain,60,2012-12-09 09:15:00
4:35 AM,44.2,42.3,93,30.04,10.0,NE,8.1,-,N/A,Rain,Light Rain,40,2012-12-09 09:35:00
4:55 AM,44.1,42.1,93,30.04,10.0,NNE,8.1,-,N/A,Rain,Light Rain,20,2012-12-09 09:55:00
5:15 AM,43.9,41.9,93,30.04,7.0,ENE,9.2,-,N/A,Rain,Rain,70,2012-12-09 10:15:00
5:35 AM,43.7,41.9,93,30.04,7.0,NNE,6.9,-,N/A,Rain,Rain,30,2012-12-09 10:35:00
5:55 AM,43.7,41.9,93,30.04,10.0,NE,6.9,-,N/A,Rain,Light Rain,40,2012-12-09 10:55:00
6:15 AM,43.5,41.7,93,30.04,10.0,NE,8.1,-,N/A,Rain,Light Rain,40,2012-12-09 11:15:00
6:35 AM,43.3,41.4,93,30.04,10.0,NE,8.1,-,N/A,Rain,Light Rain,40,2012-12-09 11:35:00
6:55 AM,43.3,41.4,93,30.06,10.0,NE,4.6,-,N/A,,Overcast,40,2012-12-09 11:55:00
7:15 AM,43.3,41.4,93,30.07,10.0,ENE,6.9,-,N/A,,Overcast,60,2012-12-09 12:15:00
7:35 AM,43.2,41.4,93,30.06,10.0,ENE,6.9,-,N/A,,Overcast,70,2012-12-09 12:35:00
7:55 AM,43.3,41.4,93,30.06,10.0,ENE,4.6,-,N/A,,Overcast,60,2012-12-09 12:55:00
8:15 AM,43.5,41.5,93,30.06,10.0,ENE,6.9,-,N/A,,Overcast,70,2012-12-09 13:15:00
8:35 AM,43.7,41.7,93,30.05,10.0,ENE,5.8,-,N/A,,Overcast,60,2012-12-09 13:35:00
8:55 AM,43.7,41.5,92,30.05,10.0,ENE,6.9,-,N/A,,Overcast,60,2012-12-09 13:55:00
9:15 AM,43.7,41.9,93,30.05,10.0,ENE,5.8,-,N/A,,Overcast,70,2012-12-09 14:15:00
9:35 AM,43.7,41.9,93,30.03,10.0,ENE,9.2,-,N/A,,Overcast,60,2012-12-09 14:35:00
9:55 AM,44.1,42.1,93,30.03,10.0,ENE,5.8,-,N/A,,Overcast,60,2012-12-09 14:55:00
10:15 AM,44.4,42.3,92,30.03,10.0,East,5.8,-,N/A,,Overcast,80,2012-12-09 15:15:00
10:35 AM,44.6,42.4,92,30.02,10.0,ENE,4.6,-,N/A,,Overcast,70,2012-12-09 15:35:00
10:55 AM,44.8,43.0,93,30.02,7.0,ENE,4.6,-,N/A,,Overcast,70,2012-12-09 15:55:00
11:15 AM,45.0,43.3,94,30.02,7.0,East,4.6,-,N/A,,Overcast,100,2012-12-09 16:15:00
11:35 AM,45.1,43.7,95,30.00,3.0,East,4.6,-,N/A,,Overcast,90,2012-12-09 16:35:00
11:55 AM,45.5,44.1,95,29.98,2.5,East,3.5,-,N/A,,Overcast,80,2012-12-09 16:55:00
12:15 PM,45.7,44.6,96,29.98,2.5,East,3.5,-,N/A,,Overcast,90,2012-12-09 17:15:00
12:35 PM,46.0,45.0,96,29.96,2.0,Calm,Calm,-,N/A,Rain,Light Rain,0,2012-12-09 17:35:00
1:15 PM,46.8,45.7,96,29.94,4.0,Calm,Calm,-,N/A,Rain,Rain,0,2012-12-09 18:15:00
1:35 PM,47.3,46.2,96,29.93,7.0,Calm,Calm,-,N/A,Rain,Light Rain,0,2012-12-09 18:35:00
1:55 PM,48.2,46.9,95,29.91,10.0,SE,3.5,-,N/A,Rain,Light Rain,140,2012-12-09 18:55:00
2:15 PM,49.1,47.8,95,29.91,10.0,Calm,Calm,-,N/A,Rain,Light Rain,0,2012-12-09 19:15:00
2:35 PM,50.0,48.7,95,29.90,10.0,SE,3.5,-,N/A,,Overcast,130,2012-12-09 19:35:00
2:55 PM,51.1,49.8,95,29.89,10.0,SSE,3.5,-,N/A,,Overcast,150,2012-12-09 19:55:00
3:15 PM,52.3,51.1,95,29.88,10.0,SSE,5.8,-,N/A,,Overcast,150,2012-12-09 20:15:00
3:35 PM,52.9,51.4,95,29.88,10.0,SSE,5.8,-,N/A,,Mostly Cloudy,160,2012-12-09 20:35:00
3:55 PM,53.6,52.0,94,29.88,10.0,South,5.8,-,N/A,,Overcast,170,2012-12-09 20:55:00
4:15 PM,54.1,52.7,95,29.88,10.0,South,4.6,-,N/A,,Overcast,190,2012-12-09 21:15:00
4:35 PM,54.5,53.1,95,29.87,10.0,South,4.6,-,N/A,,Overcast,180,2012-12-09 21:35:00
4:55 PM,55.0,53.4,94,29.87,10.0,South,3.5,-,N/A,,Overcast,170,2012-12-09 21:55:00
5:15 PM,55.4,53.6,94,29.87,10.0,South,4.6,-,N/A,Rain,Light Rain,180,2012-12-09 22:15:00
5:35 PM,55.4,53.8,94,29.86,10.0,South,5.8,-,N/A,,Overcast,190,2012-12-09 22:35:00
5:55 PM,56.3,54.5,94,29.86,10.0,South,4.6,-,N/A,,Overcast,190,2012-12-09 22:55:00
6:15 PM,56.3,54.7,94,29.86,10.0,South,3.5,-,N/A,Rain,Rain,190,2012-12-09 23:15:00
6:35 PM,56.7,55.0,94,29.86,10.0,South,4.6,-,N/A,,Light Drizzle,180,2012-12-09 23:35:00
6:55 PM,57.4,55.6,94,29.85,10.0,South,8.1,-,N/A,Rain,Light Rain,180,2012-12-09 23:55:00
7:15 PM,57.4,55.6,94,29.84,10.0,South,6.9,-,N/A,,Scattered Clouds,170,2012-12-10 00:15:00
7:35 PM,57.4,55.6,94,29.84,10.0,South,8.1,-,N/A,,Mostly Cloudy,190,2012-12-10 00:35:00
7:55 PM,57.6,55.6,93,29.83,10.0,South,8.1,-,N/A,,Mostly Cloudy,180,2012-12-10 00:55:00
8:15 PM,58.1,55.8,92,29.82,10.0,South,6.9,-,N/A,,Overcast,190,2012-12-10 01:15:00
8:35 PM,58.1,55.8,92,29.81,10.0,South,8.1,-,N/A,,Overcast,180,2012-12-10 01:35:00
8:55 PM,58.1,55.8,92,29.80,10.0,South,8.1,-,N/A,,Overcast,180,2012-12-10 01:55:00
9:15 PM,58.1,55.6,91,29.80,10.0,South,5.8,-,N/A,,Scattered Clouds,190,2012-12-10 02:15:00
9:35 PM,58.1,55.6,91,29.78,10.0,South,8.1,-,N/A,,Scattered Clouds,180,2012-12-10 02:35:00
9:55 PM,58.1,55.6,91,29.78,10.0,South,4.6,-,N/A,,Light Drizzle,190,2012-12-10 02:55:00
10:15 PM,58.3,55.6,91,29.78,10.0,South,6.9,-,N/A,Rain,Light Rain,180,2012-12-10 03:15:00
10:35 PM,58.3,55.8,91,29.77,10.0,South,8.1,-,N/A,Rain,Rain,190,2012-12-10 03:35:00
10:55 PM,58.5,55.9,91,29.77,10.0,South,10.4,-,N/A,Rain,Light Rain,190,2012-12-10 03:55:00
11:35 PM,58.1,55.8,92,29.73,10.0,South,8.1,-,N/A,Rain,Light Rain,190,2012-12-10 04:35:00
11:55 PM,58.1,55.6,91,29.72,10.0,South,6.9,-,N/A,,Overcast,180,2012-12-10 04:55:00